COSMOS 2350

Satellite information

Favourite Embed

Satellite Type and Status

PAYLOADIN ORBIT

Key statistics

Satellite COSMOS 2350 at a glance.

Uptime

9994

Days in orbit

Revolutions

≈ 1.0

Per day

Orbit

OTHER

Other

Inclination

13.9

Latest

Satellite identification and parameters

Extended collection of information and parameters for COSMOS 2350.

Object identification

Identified? True

Debris? False

Object name: COSMOS 2350

International designator: 1998-025A

Object number (NORAD): 25315

Object ID (CCSDS): 25315

Country: COMMONWEALTH OF INDEPENDENT STATES (CIS)

Current information (Y/N): Y

RCS size: LARGE

Orbital parameters

Period: 1436.17 minutes

Inclination: 13.8588 deg

SMA: 42166.156 km

Apoapsis: 35824.784 km

Periapsis: 35751.258 km

RAAN: 5.8764 deg

Eccentricy: 0.00087186

Argument of periapsis: 165.3 deg

Mean anomaly: 206.365 deg

Mean motion: 1.00266706 rev/day

Mean motion (dot): -0.00000055 rev/day2

B* drag term: 0.0 1/REarth

Two-line elements (TLE)

Creation date: Sept. 8, 2025, 3:16 a.m.

Reference frame: TEME

Reference center: EARTH

Epoch: Sept. 7, 2025, 9:22 p.m. UTC

TLE line 0: 0 COSMOS 2350

TLE line 1: 1 25315U 98025A 25250.89055733 -.00000055 00000-0 00000-0 0 9995

TLE line 2: 2 25315 13.8588 5.8764 0008719 165.3000 206.3650 1.00266706100181

Live tracking on map

Real-time ground track for satellite COSMOS 2350.

In-orbit conjunctions

A list of the most updated potential collisions computed for object COSMOS 2350.

Target Orbit TCA Probability of collision Miss distance Type
STTW-2 OTHER 2025-04-08 11:21:45 TBA 4486.0 (m) PAYLOAD

Associated space launch

Second generation early warning satellite

COSMOS 2350 was lifted into orbit during the mission ‘Proton | US-KMO 4’, on board a Proton space rocket.

The launch took place on April 29, 1998, 4:36 a.m. from 200/39 (200L).

For more information about the launch, click the button.

Launch to space Proton | US-KMO 4
Proton | US-KMO 4

Agency: N/A

Status: Launch Successful

Launch date: April 29, 1998, 4:36 a.m. UTC

Rocket: Proton

Launch pad: 200/39 (200L)

Location: Baikonur Cosmodrome, Republic of Kazakhstan

...

Latest news about this satellite

There are no fresh news available about this satellite. Check back as we update our databases every day.


Newsletter sign-up

Weekly statistics, charts and insights to help you stay on top of the space industry.